This is the latest recevied weather packets stored in our database for station/object N9BLE. If no packets are shown the sender has not sent any weather packets the latest 10 day(s).
| Time | Temp. | Humidity | Pressure | Rain* | Wind** | Luminosity | Snow |
|---|---|---|---|---|---|---|---|
| 1777961159 | 11.67° C | 55% | 1006.9 hPa | 0 mm | - | 0 W/m² | - |
| 1777960856 | 11.67° C | 54% | 1007.1 hPa | 0 mm | - | 0 W/m² | - |
| 1777960551 | 12.22° C | 53% | 1006.9 hPa | 0 mm | - | 0 W/m² | - |
| 1777960248 | 12.22° C | 52% | 1006.7 hPa | 0 mm | - | 0 W/m² | - |
| 1777959945 | 12.78° C | 50% | 1006.9 hPa | 0 mm | - | 0 W/m² | - |
| 1777959643 | 12.78° C | 50% | 1006.8 hPa | 0 mm | - | 0 W/m² | - |
| 1777959340 | 12.78° C | 49% | 1006.8 hPa | 0 mm | - | 0 W/m² | - |
| 1777959037 | 13.33° C | 48% | 1006.5 hPa | 0 mm | - | 0 W/m² | - |
| 1777958733 | 13.33° C | 48% | 1006.6 hPa | 0 mm | - | 0 W/m² | - |
| 1777958431 | 13.33° C | 49% | 1006.5 hPa | 0 mm | - | 0 W/m² | - |
| 1777958128 | 13.33° C | 49% | 1006.7 hPa | 0 mm | - | 0 W/m² | - |
| 1777957826 | 13.33° C | 50% | 1006.5 hPa | 0 mm | - | 0 W/m² | - |
| 1777957524 | 12.78° C | 51% | 1006.5 hPa | 0 mm | - | 0 W/m² | - |
| 1777957222 | 13.33° C | 49% | 1006.4 hPa | 0 mm | - | 0 W/m² | - |
| 1777956917 | 13.33° C | 49% | 1006.2 hPa | 0 mm | - | 0 W/m² | - |
| 1777956615 | 13.33° C | 49% | 1005.9 hPa | 0 mm | - | 0 W/m² | - |
| 1777956312 | 13.89° C | 48% | 1005.6 hPa | 0 mm | - | 0 W/m² | - |
| 1777956008 | 13.89° C | 49% | 1005.7 hPa | 0 mm | - | 0 W/m² | - |
| 1777955704 | 13.89° C | 51% | 1005.8 hPa | 0 mm | - | 0 W/m² | - |
| 1777955401 | 13.89° C | 50% | 1005.8 hPa | 0 mm | - | 0 W/m² | - |
| 1777955097 | 14.44° C | 51% | 1005.9 hPa | 0 mm | - | 0 W/m² | - |
| 1777954794 | 14.44° C | 51% | 1005.9 hPa | 0 mm | - | 0 W/m² | - |
| 1777954491 | 14.44° C | 51% | 1005.9 hPa | 0 mm | - | 0 W/m² | - |
| 1777954189 | 15° C | 50% | 1005.9 hPa | 0 mm | - | 0 W/m² | - |
| 1777953886 | 15° C | 50% | 1005.9 hPa | 0 mm | - | 0 W/m² | - |
* Rain latest hour (hover to see other rain measurements)
** Current wind speed in m/s (hover to see current wind gust speed)